Cloud_Cover
34 100 97 72 5 1 0 0 3 9 2 8 5 0 0 0 0 0 1 2 5 5 5 6 76 100 99 54 41 98 100 100 100 100 100 83 100 100 100 100 100 100 100
76 100 61 100 22 5 0 0 8 54 30 0 0 0 0 0 0 0 0 0 5 1 1 5 37 74 75 95 100 41 68 100 100 100 100 100 65 100 100 100 100 100 100
100 92 70 16 6 55 100 100 52 28 0 0 0 0 0 0 0 0 0 0 0 0 0 4 6 11 10 92 98 86 94 100 100 100 100 100 100 100 100 100 100 100 100
3 35 100 100 72 46 98 100 63 5 5 7 5 5 0 0 0 0 0 0 0 0 0 0 0 100 100 66 51 69 35 100 100 52 31 95 96 100 61 100 100 100 100
0 3 16 70 87 86 50 100 5 3 6 9 1 3 0 0 1 0 0 0 0 0 0 0 0 0 50 100 99 92 92 79 45 78 98 74 95 100 96 98 91 100 99
8 5 5 5 5 33 6 31 89 19 17 5 5 5 42 13 10 26 1 0 0 0 0 0 0 0 2 1 1 0 4 9 77 100 100 100 97 50 99 100 99 96 93
67 5 5 24 86 52 5 19 91 55 97 20 1 4 1 4 12 14 3 0 0 0 0 0 0 0 2 0 0 1 0 2 0 1 6 27 100 100 100 100 100 100 100
60 61 10 43 91 80 57 11 5 36 64 5 0 0 0 4 0 0 4 5 5 6 4 5 5 4 5 5 4 5 0 0 2 0 0 0 11 100 100 100 100 100 100
100 100 64 90 100 86 64 7 5 14 38 28 6 5 7 38 10 5 2 0 1 2 0 0 8 19 5 1 1 1 0 0 0 0 0 32 0 7 100 100 100 100 100
100 100 100 100 100 100 100 6 3 5 1 4 5 5 0 5 4 32 35 0 0 0 0 0 0 15 39 0 0 0 13 0 0 0 0 0 43 0 10 21 100 100 100
100 100 100 100 100 100 100 89 100 25 10 9 4 3 5 3 2 1 0 0 0 0 0 0 0 0 0 0 0 0 0 0 0 0 0 0 0 0 0 8 45 100 100
100 100 100 100 100 100 100 97 100 96 100 74 99 100 97 5 62 4 2 0 0 0 0 0 0 0 0 0 0 0 0 0 0 0 0 0 0 0 58 1 0 0 73
99 100 100 97 93 100 40 6 39 70 34 90 10 6 0 1 5 5 5 0 0 0 0 0 0 0 0 0 0 0 0 0 0 0 0 0 0 0 2 82 99 2 0
86 100 100 100 97 87 99 100 100 93 44 5 29 97 91 5 4 0 0 0 0 0 0 0 0 5 15 24 39 33 27 55 42 38 31 0 0 0 1 53 28 0 0
100 100 100 100 92 34 19 5 5 10 43 56 5 5 5 5 2 0 0 0 0 0 0 12 98 100 87 90 64 42 94 87 100 100 100 100 95 4 7 89 64 0 0
71 92 72 32 11 78 99 96 99 49 5 5 1 0 3 0 0 0 0 0 0 0 21 96 23 42 100 100 100 85 100 99 100 100 99 48 88 89 95 100 52 5 3
15 87 50 82 100 45 50 95 100 32 6 2 0 0 0 0 0 0 0 0 0 0 19 79 68 93 100 100 100 100 96 98 100 100 100 73 100 96 9 39 100 100 92
57 29 5 5 3 2 2 3 2 0 0 0 1 0 0 0 0 0 0 0 0 0 35 83 100 100 100 100 100 100 100 100 100 100 96 59 45 73 93 100 100 100 52
5 5 5 0 0 0 0 0 0 0 0 0 0 1 0 0 0 0 0 0 0 0 0 79 100 100 100 100 100 100 100 100 100 100 100 100 98 100 100 100 100 95 83
5 5 5 1 2 0 0 3 0 0 0 5 4 2 0 0 2 75 7 0 0 5 4 10 98 100 100 100 100 100 100 100 100 100 100 100 88 100 100 100 97 43 14
5 5 5 5 5 0 2 0 0 0 4 5 4 4 5 3 5 81 20 6 2 0 5 5 5 100 100 100 100 100 100 100 100 100 100 100 100 100 100 100 100 100 71
65 18 56 78 92 100 78 34 1 4 5 5 4 5 5 6 5 9 60 5 19 2 2 10 40 95 100 100 100 100 100 100 100 100 100 100 100 100 100 100 100 100 100
95 88 94 100 96 100 88 62 47 10 39 5 5 13 14 4 5 5 5 17 47 5 75 81 93 100 100 100 100 100 100 100 100 100 100 100 100 100 100 100 100 100 100
100 100 100 100 100 100 100 100 67 43 5 10 59 17 15 95 7 1 5 5 5 5 92 88 100 100 100 100 100 100 100 100 100 100 100 100 100 100 100 100 100 100 100
100 100 100 100 100 100 100 98 93 5 3 42 6 12 5 5 18 94 100 46 5 45 100 100 100 100 100 100 100 100 100 100 100 100 100 100 100 100 100 100 100 100 100
100 100 100 100 100 100 100 87 5 24 75 87 6 47 91 2 91 67 26 15 6 99 98 100 100 100 100 100 100 100 100 100 100 100 100 100 100 100 100 100 100 100 100